1339545634554,2.74826
1339545694554,2.77712
1339545754554,2.75532
1339545814554,2.74842
1339545874554,2.77541
1339545934554,2.76780
1339545994554,2.76330
1339546054554,2.77078
1339546114554,2.70229
1339546174554,2.73105
1339546234554,2.73963
1339546294554,2.77745
1339546354554,2.75062
1339546414554,2.74100
1339546474554,2.72821
1339546534554,2.74851
1339546594554,2.73522
1339546654554,2.76984
1339546714554,2.75946
1339546774554,2.76020
1339546834554,2.74134
1339546894554,2.73217
1339546954554,2.74474
1339547014554,2.76199
1339547074554,2.75532
1339547134554,2.76545
1339547194554,2.73427
1339547254554,2.73190
1339547314554,2.75718
1339547374554,2.79963
1339547434554,2.73619
1339547494554,2.74744
1339547554554,2.74962
1339547614554,2.75904
1339547674554,2.76312
1339547734554,2.77487
1339547794554,2.75082
1339547854554,2.74466
1339547914554,2.77457
1339547974554,2.76106
1339548034554,2.74768
1339548094554,2.77581
1339548154554,2.74360
1339548214554,2.73479
1339548274554,2.73787
1339548334554,2.75119
1339548394554,2.72931
1339548454554,2.76212
1339548514554,2.73080
1339548574554,2.72575
1339548634554,2.73885
1339548694554,2.73606
1339548754554,2.70714
1339548814554,2.72541
1339548874554,2.72667
1339548934554,2.70132
1339548994554,2.73578
1339549054554,2.73639
1339549114554,2.72591
1339549174554,2.70849
1339549234564,2.74614
1339549294564,2.74984
1339549354564,2.73939
1339549414564,2.72843
1339549474564,2.74398
1339549534564,2.74036
1339549594564,2.72173
1339549654564,2.73003
1339549714564,2.73382
1339549774564,2.71427
1339549834564,2.72550
1339549894564,2.74241
1339549954564,2.71288
1339550014564,2.72679
1339550074564,2.72228
1339550134564,2.72902
1339550194564,2.71354
1339550254564,2.71134
1339550314564,2.70891
1339550374564,2.72578
1339550434564,2.73391
1339550494564,2.67099
1339550554564,2.70213
1339550614564,2.69572
1339550674564,2.69946
1339550734564,2.68754
1339550794564,2.68551
1339550854564,2.70779
1339550914564,2.67528
1339550974564,2.73733
1339551034564,2.69662
1339551094564,2.69357
1339551154564,2.68761
1339551214564,2.66679
1339551274564,2.68387
1339551334564,2.65420
1339551394564,2.67554
1339551454564,2.70428
1339551514564,2.67650
1339551574564,2.68507
1339551634564,2.67687
1339551694564,2.66061
1339551754564,2.65974
1339551814564,2.67006
1339551874564,2.67588
1339551934564,2.67593
1339551994564,2.66052
1339552054564,2.68587
1339552114564,2.64521
1339552174564,2.67300
1339552234564,2.65596
1339552294564,2.67705
1339552354564,2.67116
1339552414564,2.66592
1339552474564,2.67633
1339552534564,2.68804
1339552594564,2.68388
1339552654564,2.66666
1339552714564,2.66506
1339552774564,2.67399
1339552834574,2.69548
1339552894574,2.66792
1339552954574,2.65622
1339553014574,2.66020
1339553074574,2.66616
1339553134574,2.68054
1339553194574,2.65907
1339553254574,2.63837
1339553314574,2.67496
1339553374574,2.67080
1339553434574,2.64934
1339553494574,2.67296
1339553554574,2.63547
1339553614574,2.65523
1339553674574,2.66264
1339553734574,2.67856
1339553794574,2.64287
1339553854574,2.64170
1339553914574,2.65755
1339553974574,2.66994
1339554034574,2.63759
1339554094574,2.65218
1339554154574,2.64830
1339554214574,2.66800
1339554274574,2.64070
1339554334574,2.62097
1339554394574,2.62700
1339554454574,2.64697
1339554514574,2.64714
1339554574574,2.66566
1339554634574,2.63469
1339554694574,2.65402
1339554754574,2.64835
1339554814574,2.69863
1339554874574,2.66272
1339554934574,2.63050
1339554994574,2.64297
1339555054574,2.65668
1339555114574,2.61868
1339555174574,2.63801
1339555234574,2.63915
1339555294574,2.64841
1339555354574,2.65724
1339555414574,2.66271
1339555474574,2.63717
1339555534574,2.65227
1339555594574,2.65091
1339555654574,2.63855
1339555714574,2.63014
1339555774574,2.64762
1339555834574,2.64193
1339555894574,2.66990
1339555954574,2.62156
1339556014574,2.64673
1339556074574,2.61194
1339556134574,2.65987
1339556194574,2.63735
1339556254574,2.63800
1339556314574,2.65040
1339556374574,2.65782
1339556434584,2.64153
1339556494584,2.62635
1339556554584,2.64061
1339556614584,2.62417
1339556674584,2.62150
1339556734584,2.64255
1339556794584,2.64887
1339556854584,2.66825
1339556914584,2.64267
1339556974584,2.66383
1339557034584,2.62452
1339557094584,2.64736
1339557154584,2.65121
1339557214584,2.64680
1339557274584,2.63188
1339557334584,2.64238
1339557394584,2.63907
1339557454584,2.64679
1339557514584,2.64631
1339557574584,2.66063
1339557634584,2.68205
1339557694584,2.66148
1339557754584,2.66758
1339557814584,2.65883
1339557874584,2.69137
1339557934584,2.68395
1339557994584,2.65356
1339558054584,2.65113
1339558114584,2.65789
1339558174584,2.65962
1339558234584,2.65886
1339558294584,2.68003
1339558354584,2.65330
1339558414584,2.62678
1339558474584,2.67048
1339558534584,2.66631
1339558594584,2.63843
1339558654584,2.66222
1339558714584,2.63213
1339558774584,2.67640
1339558834584,2.64858
1339558894584,2.67138
1339558954584,2.65022
1339559014584,2.65994
1339559074584,2.69457
1339559134584,2.66524
1339559194584,2.67533
1339559254584,2.67479
1339559314584,2.67719
1339559374584,2.66785
1339559434584,2.67920
1339559494584,2.63595
1339559554584,2.67629
1339559614584,2.66829
1339559674584,2.66033
1339559734584,2.67470
1339559794584,2.57796
1339559854584,2.64695
1339559914584,2.64843
1339559974584,2.63654
1339560034594,2.65416
1339560094594,2.66581
1339560154594,2.66159
1339560214594,2.65006
1339560274594,2.66654
1339560334594,2.66018
1339560394594,2.67982
1339560454594,2.65893
1339560514594,2.66553
1339560574594,2.62660
1339560634594,2.67732
1339560694594,2.65567
1339560754594,2.76700
1339560814594,2.62222
1339560874594,2.65941
1339560934594,2.66444
1339560994594,2.65028
1339561054594,2.63827
1339561114594,2.66077
1339561174594,2.64397
1339561234594,2.69163
1339561294594,2.63989
1339561354594,2.65451
1339561414594,2.65805
1339561474594,2.66263
1339561534594,2.64083
1339561594594,2.64746
1339561654594,2.64359
1339561714594,2.64790
1339561774594,2.63527
1339561834594,2.64510
1339561894594,2.65242
1339561954594,2.62487
1339562014594,2.62676
1339562074594,2.65975
1339562134594,2.64150
1339562194594,2.64301
1339562254594,2.63177
1339562314594,2.62152
1339562374594,2.62535
1339562434594,2.64671
1339562494594,2.74849
1339562554594,2.62455
1339562614594,2.63778
1339562674594,2.65384
1339562734594,2.51506
1339562794594,2.63404
1339562854594,2.63159
1339562914594,2.64062
1339562974594,2.60881
1339563034594,2.64736
1339563094594,2.62698
1339563154594,2.63007
1339563214594,2.64188
1339563274594,2.63442
1339563334594,2.61553
1339563394594,2.64099
1339563454594,2.63947
1339563514594,2.63754
1339563574594,2.61371
1339563634603,2.65636
1339563694603,2.61084
1339563754603,2.61813
1339563814603,2.63814
1339563874603,2.68175
1339563934603,2.64763
1339563994603,2.62062
1339564054603,2.66529
1339564114603,2.63504
1339564174603,2.61518
1339564234603,2.65400
1339564294603,2.53222
1339564834603,2.59692
1339564894603,2.57960
1339564954603,2.62173
1339565014603,2.62726
1339565074603,2.63008
1339565134603,2.62373
1339565194603,2.62782
1339565254603,2.59376
1339565314603,2.61639
1339565374603,2.62008
1339565434603,2.61127
1339565494603,2.62733
1339565554603,2.60856
1339565614603,2.60171
1339565674603,2.60623
1339565734603,2.59255
1339565794603,2.61486
1339565854603,2.61433
1339565914603,2.62641
1339565974603,2.61720
1339566034603,2.61877
1339566094603,2.61224
1339566154603,2.61116
1339566214603,2.60720
1339566274603,2.61609
1339566334603,2.62109
1339566394603,2.60270
1339566454603,2.60522
1339566514603,2.60492
1339566574603,2.61397
1339566634603,2.60244
1339566694603,2.61591
1339566754603,2.61441
1339566814603,2.62025
1339566874603,2.62826
1339566934603,2.59296
1339566994603,2.63129
1339567054603,2.61082
1339567114603,2.62235
1339567174603,2.61688
1339567234613,2.61540
1339567294613,2.61912
1339567354613,2.59864
1339567414613,2.63030
1339567474613,2.63675
1339567534613,2.62177
1339567594613,2.63000
1339567654613,2.62071
1339567714613,2.62207
1339567774613,2.62071
1339567834613,2.62776
1339567894613,2.63169
1339567954613,2.66574
1339568014613,2.63680
1339568074613,2.61246
1339568134613,2.63892
1339568194613,2.64218
1339568254613,2.63974
1339568314613,2.63219
1339568374613,2.60321
1339568434613,2.63808
1339568494613,2.63723
1339568554613,2.63583
1339568614613,2.62665
1339568674613,2.63977
1339568734613,2.64299
1339568794613,2.62801
1339568854613,2.64348
1339568914613,2.63079
1339568974613,2.66359
1339569034613,2.66113
1339569094613,2.65079
1339569154613,2.64546
1339569214613,2.66775
1339569274613,2.66353
1339569334613,2.65877
1339569394613,2.65348
1339569454613,2.64279
1339569514613,2.64244
1339569574613,2.64648
1339569634613,2.64729
1339569694613,2.64196
1339569754613,2.65481
1339569814613,2.66949
1339569874613,2.62936
1339569934613,2.66082
1339569994613,2.63899
1339570054613,2.63666
1339570114613,2.63924
1339570174613,2.63806
1339570234613,2.62618
1339570294613,2.64113
1339570354613,2.63048
1339570414613,2.61310
1339570474613,2.64609
1339570534613,2.63315
1339570594613,2.64431
1339570654613,2.64469
1339570714613,2.63193
1339570774613,2.59903
1339570834622,2.64075
1339570894622,2.63000
1339570954622,2.62561
1339571014622,2.61769
1339571074622,2.60634
1339571134622,2.61441
1339571194622,2.61956
1339571254622,2.60555
1339571314622,2.61594
1339571374622,2.60466
1339571434622,2.61119
1339571494622,2.59917
1339571554622,2.60813
1339571614622,2.59851
1339571674622,2.61186
1339571734622,2.58832
1339571794622,2.61464
1339571854622,2.57579
1339571914622,2.61623
1339571974622,2.58324
1339572034622,2.59228
1339572094622,2.58586
1339572154622,2.59613
1339572214622,2.57621
1339572274622,2.59447
1339572334622,2.59457
1339572394622,2.58844
1339572454622,2.59882
1339572514622,2.58156
1339572574622,2.58373
1339572634622,2.58788
1339572694622,2.60628
1339572754622,2.57371
1339572814622,2.59351
1339572874622,2.60107
1339572934622,2.59351
1339572994622,2.59286
1339573054622,2.57494
1339573114622,2.58404
1339573174622,2.57529
1339573234622,2.60426
1339573294622,2.59711
1339573354622,2.58511
1339573414622,2.58134
1339573474622,2.56464
1339573534622,2.59396
1339573594622,2.57097
1339573654622,2.56738
1339573714622,2.58986
1339573774622,2.59085
1339573834622,2.60648
1339573894622,2.57706
1339573954622,2.58028
1339574014622,2.55089
1339574074622,2.58184
1339574134622,2.58697
1339574194622,2.60472
1339574254622,2.59221
1339574314622,2.58046
1339574374622,2.57143
1339574434631,2.58540
1339574494631,2.59317
1339574554631,2.56869
1339574614631,2.57139
1339574674631,2.59723
1339574734631,2.58634
1339574794631,2.60578
1339574854631,2.59989
1339574914631,2.56406
1339574974631,2.59815
1339575034631,2.57572
1339575094631,2.61085
1339575154631,2.59247
1339575214631,2.57728
1339575274631,2.58682
1339575334631,2.58069
1339575394631,2.58298
1339575454631,2.60848
1339575514631,2.59142
1339575574631,2.58345
1339575634631,2.59526
1339575694631,2.59274
1339575754631,2.59152
1339575814631,2.60249
1339575874631,2.59739
1339575934631,2.58804
1339575994631,2.60010
1339576054631,2.59001
1339576114631,2.60895
1339576174631,2.60264
1339576234631,2.59702
1339576294631,2.58886
1339576354631,2.58802
1339576414631,2.61911
1339576474631,2.60139
1339576534631,2.60701
1339576594631,2.60488
1339576654631,2.60377
1339576714631,2.60209
1339576774631,2.60737
1339576834631,2.59902
1339576894631,2.61700
1339576954631,2.58698
1339577014631,2.60986
1339577074631,2.58483
1339577134631,2.61270
1339577194631,2.60021
1339577254631,2.61396
1339577314631,2.60840
1339577374631,2.64685
1339577434631,2.60522
1339577494631,2.61835
1339577554631,2.64078
1339577614631,2.62291
1339577674631,2.60884
1339577734631,2.62935
1339577794631,2.62983
1339577854631,2.61326
1339577914631,2.60871
1339577974631,2.61000
1339578034640,2.62737
1339578094640,2.62353
1339578154640,2.61524
1339578214640,2.59964
1339578274640,2.62161
1339578334640,2.61494
1339578394640,2.62956
1339578454640,2.62552
1339578514640,2.63117
1339578574640,2.63010
1339578634640,2.60962
1339578694640,2.60805
1339578754640,2.61191
1339578814640,2.63865
1339578874640,2.60601
1339578934640,2.61987
1339578994640,2.64214
1339579054640,2.61377
1339579114640,2.62514
1339579174640,2.62136
1339579234640,2.62851
1339579294640,2.62861
1339579354640,2.63167
1339579414640,2.63383
1339579474640,2.64792
1339579534640,2.62877
1339579594640,2.63366
1339579654640,2.61087
1339579714640,2.61932
1339579774640,2.62112
1339579834640,2.63627
1339579894640,2.63847
1339579954640,2.62863
1339580014640,2.63984
1339580074640,2.61744
1339580134640,2.63090
1339580194640,2.62534
1339580254640,2.62628
1339580314640,2.64578
1339580374640,2.61116
1339580434640,2.62510
1339580494640,2.62663
1339580554640,2.61678
1339580614640,2.52535
1339580674640,2.65361
1339580734640,2.62172
1339580794640,2.62729
1339580854640,2.62548
1339580914640,2.62674
1339580974640,2.62568
1339581034640,2.64453
1339581094640,2.61724
1339581154640,2.62113
1339581214640,2.64130
1339581274640,2.62143
1339581334640,2.83584
1339581394640,2.62053
1339581454640,2.63063
1339581514640,2.62351
1339581574640,2.64177
1339581634649,2.63007
1339581694649,2.63057
1339581754649,2.60717
1339581814649,2.62862
1339581874649,2.60739
1339581934649,2.58231
1339581994649,2.59290
1339582054649,2.60638
1339582114649,2.62117
1339582174649,2.62153
1339582234649,2.62474
1339582294649,2.64749
1339582354649,2.63327
1339582414649,2.61852
1339582474649,2.64371
1339582534649,2.43300
1339582594649,2.59579
1339582654649,2.61252
1339582714649,2.60076
1339582774649,2.78838
1339582834649,2.61790
1339582894649,2.60786
1339582954649,2.60902
1339583014649,2.60849
1339583074649,2.60926
1339583134649,2.61427
1339583194649,2.62546
1339583254649,2.64005
1339583314649,2.62728
1339583374649,2.61588
1339583434649,2.61111
1339583494649,2.63019
1339583554649,2.61233
1339583614649,2.63131
1339583674649,2.61206
1339583734649,2.60453
1339583794649,2.62654
1339583854649,2.60988
1339583914649,2.59369
1339583974649,2.60746
1339584034649,2.60213
1339584094649,2.61835
1339584154649,2.60350
1339584214649,2.63180
1339584274649,2.60893
1339584334649,2.65261
1339584394649,2.61965
1339584454649,2.59582
1339584514649,2.59778
1339584574649,2.62803
1339584634649,2.64499
1339584694649,2.59463
1339584754649,2.61526
1339584814649,2.61550
1339584874649,2.63353
1339584934649,2.63265
1339584994649,2.62692
1339585054649,2.64580
1339585114649,2.60665
1339585174649,2.64597
1339585234658,2.63951
1339585294658,2.64412
1339585354658,2.62701
1339585414658,2.62664
1339585474658,2.62626
1339585534658,2.61403
1339585594658,2.63028
1339585654658,2.62614
1339585714658,2.62210
1339585774658,2.59767
1339585834658,2.62946
1339585894658,2.61839
1339585954658,2.61420
1339586014659,2.62265
1339586074658,2.63834
1339586134658,2.63045
1339586194658,2.62312
1339586254658,2.60874
1339586314658,2.62039
1339586374658,2.62587
1339586434658,2.62524
1339586494658,2.62530
1339586554658,2.61684
1339586614658,2.61795
1339586674658,2.61910
1339586734658,2.61926
1339586794658,2.62685
1339586854658,2.62264
1339586914658,2.61530
1339586974658,2.63279
1339587034658,2.63649
1339587094658,2.61334
1339587154658,2.63986
1339587214658,2.63646
1339587274658,2.61884
1339587334658,2.64802
1339587394659,2.64252
1339587454658,2.63348
1339587514658,2.62493
1339587574658,2.64175
1339587634658,2.62923
1339587694658,2.64980
1339587754658,2.58819
1339587814658,2.62142
1339587874658,2.62315
1339587934658,2.64433
1339587994658,2.63965
1339588054658,2.62105
1339588114658,2.65049
1339588174658,2.62534
1339588234658,2.68764
1339588294658,2.63064
1339588354658,2.63942
1339588414658,2.65700
1339588474658,2.64435
1339588534658,2.64684
1339588594658,2.65079
1339588654658,2.66133
1339588714659,2.65958
1339588774658,2.62390
1339588834668,2.64273
1339588894668,2.62628
1339588954668,2.63973
1339589014668,2.63315
1339589074668,2.66419
1339589134668,2.65996
1339589194668,2.66340
1339589254668,2.64752
1339589314668,2.65534
1339589374668,2.65141
1339589434668,2.67564
1339589494668,2.67236
1339589554668,2.66855
1339589614668,2.66544
1339589674668,2.68423
1339589734668,2.64804
1339589794668,2.65503
1339589854668,2.65047
1339589914668,2.65267
1339589974668,2.64922
1339590034668,2.65415
1339590094668,2.64723
1339590154668,2.67617
1339590214668,2.64884
1339590274668,2.63010
1339590334668,2.68123
1339590394668,2.67255
1339590454668,2.65601
1339590514668,2.64448
1339590574668,2.65148
1339590634668,2.65389
1339590694668,2.49937
1339590754668,2.64079
1339590814668,2.67510
1339590874668,2.67238
1339590934668,2.65222
1339590994668,2.64736
1339591054668,2.66844
1339591114668,2.67789
1339591174668,2.67737
1339591234668,2.68047
1339591294668,2.68228
1339591354668,2.68151
1339591414668,2.69650
1339591474668,2.69264
1339591534668,2.67850
1339591594668,2.68912
1339591654668,2.71093
1339591714668,2.68042
1339591774668,2.69258
1339591834668,2.71524
1339591894668,2.70681
1339591954668,2.70983
1339592014668,2.70745
1339592074668,2.70268
1339592134668,2.72493
1339592194668,2.73103
1339592254668,2.71182
1339592314668,2.73574
1339592374668,2.74826
1339592434677,2.71748
1339592494677,2.72296
1339592554677,2.74116
1339592614677,2.74094
1339592674677,2.75714
1339592734677,2.74098
1339592794677,2.77669
1339592854677,2.75066
1339592914677,2.79460
1339592974677,2.78087
1339593034677,2.80984
1339593094677,2.77771
1339593154677,2.81440
1339593214677,2.81800
1339593274677,2.82298
1339593334677,2.82603
1339593394677,2.81806
1339593454677,2.82982
1339593514677,2.83168
1339593574677,2.83918
1339593634677,2.80735
1339593694677,2.80787
1339593754677,2.83887
1339593814677,2.85368
1339593874677,2.84866
1339593934677,2.86138
1339593994677,2.90188
1339594054677,2.88311
1339594114677,2.87525
1339594174677,2.88800
1339594234677,2.91700
1339594294677,2.90071
1339594354677,2.95657
1339594414677,2.96070
1339594474677,2.94300
1339594534677,2.94614
1339594594677,2.97078
1339594654677,2.97846
1339594714677,3.01114
1339594774677,3.01316
1339594834677,3.01324
1339594894677,3.04771
1339594954677,3.04321
1339595014677,3.06943
1339595074677,3.06911
1339595134677,3.04259
1339595194677,3.06181
1339595254677,3.02815
1339595314677,3.06001
1339595374677,3.03359
1339595434677,3.01230
1339595494677,3.00577
1339595554677,2.99662
1339595614677,2.98449
1339595674677,3.00422
1339595734677,3.00966
1339595794677,2.99829
1339595854677,3.00961
1339595914677,2.96570
1339595974677,2.96544
1339596034686,2.95169
1339596094686,2.95691
1339596154686,2.93435
1339596214686,2.90363
1339596274686,2.89274
1339596334686,2.89570
1339596394686,2.88761
1339596454686,2.86096
1339596514686,2.87799
1339596574686,2.84448
1339596634686,2.85091
1339596694686,2.84216
1339596754686,2.86270
1339596814686,2.83854
1339596874686,2.84009
1339596934686,2.84972
1339596994686,2.83332
1339597054686,2.84444
1339597114686,2.82417
1339597174686,2.78204
1339597234686,2.81462
1339597294686,2.78621
1339597354686,2.82144
1339597414686,2.80059
1339597474686,2.81054
1339597534686,2.78820
1339597594686,2.78768
1339597654686,2.76979
1339597714686,2.82593
1339597774686,2.80012
1339597834686,2.78830
1339597894686,2.76820
1339597954686,2.76132
1339598014686,2.76025
1339598074686,2.77012
1339598134686,2.75500
1339598194686,2.75587
1339598254686,2.77438
1339598314686,2.79232
1339598374686,2.80979
1339598434686,2.79454
1339598494686,2.80021
1339598554686,2.74969
1339598614686,2.78519
1339598674686,2.78495
1339598734686,2.79123
1339598794686,2.79874
1339598854686,2.76433
1339598914686,2.76534
1339598974686,2.79124
1339599034686,2.73489
1339599094686,2.73206
1339599154686,2.79609
1339599214686,2.80520
1339599274686,2.82204
1339599334686,2.82313
1339599394686,2.80437
1339599454686,2.80676
1339599514686,2.82425
1339599574686,2.81032
1339599634695,2.82431
1339599694695,2.82047
1339599754695,2.82265
1339599814695,2.82373
1339599874695,2.80358
1339599934695,2.80497
1339599994695,2.80955
1339600054695,2.80322
1339600114695,2.78647
1339600174695,2.80526
1339600234695,2.81868
1339600294695,2.78202
1339600354695,2.81287
1339600414695,2.80265
1339600474695,2.82285
1339600534695,2.78705
1339600594695,2.81253
1339600654695,2.80742
1339600714695,2.82634
1339600774695,2.79662
1339600834695,2.81280
1339600894695,2.78576
1339600954695,2.80827
1339601014695,2.79850
1339601074695,2.82429
1339601134695,2.79523
1339601194695,2.76883
1339601254695,2.77641
1339601314695,2.80136
1339601374695,2.83314
1339601434695,2.78724
1339601494695,2.77328
1339601554695,2.80905
1339601614695,2.83495
1339601674695,2.77288
1339601734695,2.81192
1339601794695,2.79032
1339601854695,2.79130
1339601914695,2.80476
1339601974695,2.78571
1339602034695,2.80065
1339602094695,2.79206
1339602154695,2.80582
1339602214695,2.78207
1339602274695,2.80057
1339602334695,2.77544
1339602394695,2.84786
1339602454695,2.81353
1339602514695,2.78483
1339602574695,2.75490
1339602634695,2.81521
1339602694695,2.77826
1339602754695,2.79342
1339602814695,2.78451
1339602874695,2.80528
1339602934695,2.82309
1339602994695,2.78685
1339603054695,2.80919
1339603114695,2.79784
1339603174695,2.81117
1339603234705,3.02288
1339603294705,2.78413
1339603354705,2.86263
1339603414705,2.79583
1339603474705,2.77632
1339603534705,2.78716
1339603594705,2.79539
1339603654705,2.78065
1339603714705,2.79348
1339603774705,2.79579
1339603834705,2.78567
1339603894705,2.82887
1339603954705,2.79075
1339604014705,2.79653
1339604074705,2.80614
1339604134705,2.81973
1339604194705,2.80446
1339604254705,2.80066
1339604314705,2.81430
1339604374705,2.81725
1339604434705,2.81836
1339604494705,2.79190
1339604554705,2.77994
1339604614705,2.81870
1339604674705,2.81699
1339604734705,2.82602
1339604794705,2.81426
1339604854705,2.79694
1339604914705,2.79237
1339604974705,2.81654
1339605034705,2.79308
1339605094705,2.79296
1339605154705,2.78737
1339605214705,2.80793
1339605274705,2.79963
1339605334705,2.75622
1339605394705,2.80101
1339605454705,2.78395
1339605514705,2.78637
1339605574705,2.78434
1339605634705,2.79212
1339605694705,2.79136
1339605754705,2.79808
1339605814705,2.82190
1339605874705,2.80524
1339605934705,2.78568
1339605994705,2.76894
1339606054705,2.77014
1339606114705,2.77596
1339606174705,2.79324
1339606234705,2.79800
1339606294705,2.77767
1339606354705,2.77396
1339606414705,2.78966
1339606474705,2.79076
1339606534705,2.81121
1339606594705,2.77918
1339606654705,2.79925
1339606714705,2.76747
1339606774705,2.78902
1339606834715,2.77723
1339606894715,2.74247
1339606954715,2.83081
1339607014715,2.78114
1339607074715,2.78036
1339607134715,2.78971
1339607194715,2.76529
1339607254715,2.77248
1339607314715,2.77364
1339607374715,2.76125
1339607434715,2.77757
1339607494715,2.75670
1339607554715,2.77195
1339607614715,2.77358
1339607674715,2.76597
1339607734715,2.75648
1339607794715,2.77239
1339607854715,2.75755
1339607914715,2.75884
1339607974715,2.78477
1339608034715,2.76620
1339608094715,2.76122
1339608154715,2.73838
1339608214715,2.75205
1339608274715,2.75654
1339608334715,2.74650
1339608394715,2.75546
1339608454715,2.74685
1339608514715,2.76273
1339608574715,2.73967
1339608634715,2.72622
1339608694715,2.75316
1339608754715,2.75129
1339608814715,2.74218
1339608874715,2.74944
1339608934715,2.76704
1339608994715,2.72905
1339609054715,2.72921
1339609114715,2.75063
1339609174715,2.77885
1339609234715,2.75050
1339609294715,2.72408
1339609354715,2.72272
1339609414715,2.75815
1339609474715,2.72915
1339609534715,2.73773
1339609594715,2.72354
1339609654715,2.73332
1339609714715,2.73395
1339609774715,2.73957
1339609834715,2.73835
1339609894715,2.73157
1339609954715,2.77218
1339610014715,2.70536
1339610074715,2.82396
1339610134715,2.73785
1339610194715,2.74708
1339610254715,2.69929
1339610314715,2.72468
1339610374715,2.75311
1339610434725,2.76128
1339610494725,2.72621
1339610554725,2.74098
1339610614725,2.73906
1339610674725,2.73926
1339610734725,2.72532
1339610794725,2.70512
1339610854725,2.73771
1339610914725,2.74324
1339610974725,2.73124
1339611034725,2.74905
1339611094725,2.72349
1339611154725,2.74020
1339611214725,2.72897
1339611274725,2.75063
1339611334725,2.74888
1339611394725,2.75234
1339611454725,2.71838